Hourly Weather Roundup
Issued by NWS Central Illinois

Home | Current Version | Previous Version | Text Only | Print | Product List | Glossary On
Versions: 1 2 3 4 5 6 7 8 9 10 11 12 13 14 15 16 17 18 19 20 21 22 23 24 25 26 27 28 29 30 31 32 33 34 35 36 37 38 39 40 41 42 43 44 45 46 47 48 49 50
000
NZUS43 KILX 291110
HWRILX

AREA WEATHER ROUNDUP
NATIONAL WEATHER SERVICE, LINCOLN IL
500 AM CST THU JAN 29 2015


CITY           SKY/WX    TMP DP  RH WIND       PRES   REMARKS
BLOOMINGTON    MOCLDY    40  36  86 SW12      29.69R WCI  33
CHAMPAIGN      CLOUDY    39  33  79 S20       29.70F WCI  29
DECATUR        CLOUDY    46  37  71 SW17G26   29.73R
FLORA          MOCLDY    46  37  70 SW12      29.80S
GALESBURG      CLOUDY    34  32  92 NW18G29   29.78R WCI  23
JACKSONVILLE   CLOUDY    43  37  77 W21G26    29.81R WCI  34
LACON          CLOUDY    35  32  86 CALM      29.70R
LAWRENCEVILLE  MOCLDY    42  35  76 S15       29.80F WCI  34
LITCHFIELD     MOCLDY    41  35  81 W10       29.78R WCI  34
$$


CITY           SKY/WX    TMP DP  RH WIND       PRES   REMARKS
LINCOLN        CLOUDY    44  37  74 W12G22    29.72R
MACOMB         CLOUDY    37  33  88 NW26G36   29.83R WCI  24
MATTOON        CLOUDY    42  33  70 S10       29.74S
MT CARMEL AP   CLOUDY    46  34  61 S12       29.80F
OLNEY-NOBLE AP CLOUDY    43  36  75 CALM      29.79F
PARIS          MOCLDY    39  33  77 S15G21    29.75F WCI  31
PEORIA         CLOUDY    41  34  76 NW15G26   29.72R WCI  33
PONTIAC        PTCLDY    36  33  88 S5        29.69S WCI  32
RANTOUL        PTCLDY    40  34  80 S9        29.70S WCI  34
ROBINSON       CLOUDY    41  34  74 S16       29.79F WCI  33
SPRINGFIELD    CLOUDY    43  36  76 W13G22    29.78R
TAYLORVILLE    CLOUDY    45  36  70 W16       29.76R
$$

...REGIONAL REPORTS...


CITY           SKY/WX    TMP DP  RH WIND       PRES   REMARKS
CHICAGO O`HARE PTCLDY    32  26  78 S5        29.68F WCI  27
KANKAKEE       CLEAR     35  31  85 S9        29.69F WCI  28
MOLINE         CLOUDY    34  30  85 NW17      29.79R WCI  23
MOUNT VERNON   CLOUDY    48  37  66 SW17      29.82S
PITTSFIELD     CLOUDY    42  36  78 NW17G26   29.86R WCI  34
QUINCY         CLOUDY    38  33  82 NW23G38   29.87R WCI  27
ROCKFORD       CLOUDY    33  28  81 N7        29.74R WCI  27
$$


CITY           SKY/WX    TMP DP  RH WIND       PRES   REMARKS
BURLINGTON     CLOUDY    36  32  85 NW16G31   29.84R WCI  26
CEDAR RAPIDS   CLOUDY    33  31  92 NW20      29.87R WCI  21
DES MOINES     DRIZZLE   36  32  85 N21G30    30.03R WCI  25
KIRKSVILLE     CLOUDY    37  32  82 NW22G28   29.99R WCI  26
OTTUMWA        CLOUDY    35  30  82 NW23G31   29.95R WCI  23
ST LOUIS       FAIR      51  38  60 W20G26    29.82R
$$


CITY           SKY/WX    TMP DP  RH WIND       PRES   REMARKS
TERRE HAUTE    MOCLDY    42  31  64 S13       29.78F
EVANSVILLE     CLOUDY    50  34  54 S13       29.86F
INDIANAPOLIS   CLOUDY    34  25  69 SE9       29.80F WCI  27
LAFAYETTE      MOCLDY    40  30  67 S10       29.74F WCI  33
MADISON        CLOUDY    31  26  82 N6        29.76R WCI  25
MILWAUKEE      CLOUDY    33  26  75 CALM      29.72F
$$




USA.gov is the U.S. government's official web portal to all federal, state and local government web resources and services.